SCP
0 1 2 2 2 2 2 1 1 1 2 2 2 1 1 1 1 1 1 1 1 2 2 2 2 2 2 1 1 1 0 0 0 0 0 0 0 0 0 0 0 0 0
0 1 2 2 2 2 2 2 2 2 2 2 2 2 1 1 1 1 1 1 1 2 2 2 2 2 2 1 1 1 0 0 0 0 0 0 0 0 0 0 0 0 0
1 1 3 3 2 2 2 2 2 2 2 2 2 2 2 1 1 1 1 1 1 2 2 2 2 2 2 1 1 1 0 0 0 0 0 0 0 0 0 0 0 0 0
1 2 3 3 3 3 2 2 2 2 2 2 2 2 2 2 2 1 1 1 1 1 2 2 2 2 2 2 1 1 0 0 0 0 0 0 0 0 0 0 0 0 0
1 2 3 3 3 3 2 2 3 3 3 2 2 2 2 2 2 2 1 1 1 1 2 2 2 2 2 2 1 1 1 1 0 0 0 0 0 0 0 0 0 0 0
2 2 3 3 3 3 3 3 3 3 3 2 2 2 2 2 2 2 2 2 1 1 1 2 2 3 3 2 2 1 1 0 0 0 0 0 0 0 0 0 0 1 1
2 2 3 3 3 3 3 3 3 3 3 2 2 2 2 2 2 2 2 2 2 2 2 2 2 3 3 2 2 1 1 0 0 0 0 0 0 0 0 0 1 1 1
2 3 3 4 4 3 3 3 3 3 3 2 2 2 2 2 2 2 2 2 2 2 2 2 3 3 3 3 2 1 1 0 0 0 0 0 0 0 0 0 1 1 1
3 3 3 4 4 3 3 3 3 3 2 2 2 2 2 2 2 2 2 2 2 2 2 2 2 3 3 3 2 1 1 0 0 0 0 0 0 0 0 0 1 1 1
3 3 3 4 4 3 3 2 2 2 2 2 2 2 2 2 2 2 2 2 2 1 1 1 2 3 4 3 2 1 0 0 0 0 0 0 0 0 0 1 1 1 0
2 3 3 3 3 3 2 2 2 2 1 2 2 2 2 2 2 2 2 2 2 1 1 1 2 2 3 3 2 1 0 0 0 0 0 0 0 0 0 1 1 0 0
2 2 3 3 3 3 2 2 2 1 1 1 1 1 2 2 2 2 2 1 1 1 1 1 1 2 2 2 1 0 0 0 0 0 0 0 0 1 0 0 0 0 0
2 2 2 3 3 3 2 2 2 1 1 1 1 1 2 2 2 2 2 1 1 1 1 1 1 1 1 1 1 0 0 0 0 0 0 0 0 1 1 0 0 0 0
1 2 2 2 3 3 2 2 2 1 1 1 1 1 1 2 2 2 2 2 1 1 1 1 1 1 1 1 0 0 0 0 0 0 0 0 0 1 1 0 0 0 0
1 1 2 2 2 2 2 2 2 1 1 1 1 1 1 2 2 2 2 2 2 1 1 1 1 1 1 1 0 0 0 0 0 0 0 0 0 1 1 1 0 0 0
1 1 2 2 2 2 2 2 1 1 1 1 1 1 1 1 1 2 2 2 2 1 1 1 1 1 1 1 0 0 0 0 0 0 0 0 0 0 1 1 0 0 0
1 1 2 2 2 2 2 2 1 1 1 1 1 1 1 1 1 1 2 2 1 1 1 1 1 2 2 1 0 0 0 0 0 0 0 0 0 0 0 0 0 0 0
1 1 1 1 2 2 2 2 1 1 1 1 1 1 1 1 1 1 1 1 1 1 1 1 1 2 2 1 0 0 0 0 0 0 0 0 0 0 0 0 0 0 0
1 1 1 1 1 2 2 2 2 2 2 2 2 1 1 1 1 1 1 1 1 1 1 0 1 1 1 1 0 0 0 0 0 0 0 0 0 0 0 0 0 0 0
0 1 1 1 1 2 2 2 2 2 2 2 2 1 1 1 1 1 1 1 1 1 1 0 1 1 1 0 0 0 0 0 0 0 0 0 0 0 0 0 0 0 0
0 1 1 1 1 2 2 2 2 2 2 2 2 2 1 1 1 1 1 1 1 1 1 0 0 1 1 0 0 0 0 0 0 0 0 0 0 0 0 0 0 0 0
1 1 1 1 1 2 2 2 2 2 1 1 2 2 2 1 1 1 1 1 1 1 0 0 0 0 1 0 0 0 0 0 0 0 0 0 0 0 0 0 0 0 0
1 1 1 1 1 1 2 2 2 2 1 1 2 2 2 2 2 1 1 1 1 1 0 0 0 0 0 0 0 0 0 0 0 0 0 0 0 0 0 0 0 0 0
1 1 0 0 1 1 2 2 2 2 1 1 1 2 2 2 2 1 1 1 1 0 0 0 0 0 0 0 0 0 0 0 0 0 0 0 0 0 0 0 0 0 0
1 1 0 0 1 2 2 2 2 2 1 1 1 1 2 2 2 1 1 1 0 0 0 0 0 0 0 0 0 0 0 0 0 0 0 0 0 0 0 0 0 0 0
1 1 0 0 1 1 2 3 2 1 1 1 1 1 1 2 2 1 1 1 0 0 0 0 0 0 0 0 0 0 0 0 0 0 0 0 0 0 0 0 0 0 0
Wind_Speed
5 6 14 15 15 15 14 13 13 12 12 12 12 12 12 12 12 12 11 11 10 10 10 10 10 11 11 11 11 11 11 10 10 10 11 11 11 11 11 11 10 6 11
6 9 15 15 15 15 14 14 13 12 12 11 11 12 12 11 11 11 11 11 10 10 10 10 10 10 10 11 11 10 10 10 10 10 10 9 10 10 10 10 10 6 10
6 9 12 15 15 15 14 14 13 13 12 11 11 11 11 11 11 11 11 10 10 10 9 9 10 10 10 10 10 10 9 9 9 9 9 4 5 9 9 9 9 9 10
6 8 8 14 15 15 15 14 14 13 12 12 11 11 11 11 11 11 11 10 9 9 9 9 9 9 9 9 9 9 9 9 9 9 4 3 3 7 9 9 8 8 9
5 6 8 14 15 15 15 15 14 14 13 12 12 11 11 11 11 11 11 10 9 9 8 8 9 9 8 8 9 9 8 8 8 6 3 3 2 6 8 7 7 8 8
4 5 7 13 15 15 15 15 14 14 14 13 12 12 11 11 11 11 10 9 9 9 9 8 8 9 8 8 8 9 8 8 7 4 3 2 1 5 7 6 6 7 7
4 4 5 12 14 14 14 14 14 14 14 14 13 13 12 11 11 11 10 10 9 9 9 9 9 8 8 8 8 8 8 8 5 3 2 1 1 5 6 6 6 6 6
5 4 5 11 12 13 13 13 13 13 13 14 14 13 13 12 11 11 10 10 10 9 9 9 9 9 8 8 9 9 8 7 5 3 2 1 3 5 6 6 6 6 6
3 4 4 5 8 10 12 12 12 13 13 13 13 13 12 12 12 12 11 11 10 10 10 10 10 9 9 9 9 9 8 7 4 2 2 2 4 6 6 6 6 6 6
3 4 4 4 5 5 7 10 10 11 12 12 12 10 10 10 11 11 10 11 11 10 10 10 10 10 9 9 9 9 8 6 3 3 2 3 6 7 7 7 6 6 6
4 4 5 5 5 5 5 7 8 9 10 10 9 9 8 5 6 6 8 10 12 12 11 11 10 10 9 8 8 8 6 3 3 2 2 6 8 8 8 8 8 7 7
7 7 6 6 6 5 5 4 4 5 5 6 4 5 4 4 4 5 8 10 11 11 11 12 11 9 5 3 5 6 3 4 3 2 3 9 10 10 9 9 9 9 8
7 7 7 7 7 6 5 4 3 3 3 4 5 5 4 4 3 3 3 5 6 7 5 6 5 3 3 3 3 3 4 3 3 3 4 10 11 11 11 11 10 10 10
6 8 8 8 7 7 6 5 4 3 3 4 5 6 4 3 3 3 3 3 3 3 4 3 3 4 4 5 5 5 5 3 3 3 4 11 12 13 12 12 12 12 11
7 8 9 9 9 8 7 6 5 5 5 5 4 6 6 5 5 4 3 3 4 3 4 4 4 5 5 5 5 6 6 6 5 5 4 10 13 13 14 14 13 13 13
7 8 8 9 10 9 8 7 6 6 6 5 5 7 8 6 5 5 5 4 4 4 4 5 6 5 5 4 5 6 6 6 5 6 5 7 12 14 15 16 15 15 14
6 6 7 8 9 9 9 8 6 6 6 6 6 7 8 7 7 6 5 5 5 5 5 4 5 4 5 5 5 6 5 6 6 6 6 5 6 11 15 17 17 16 16
4 5 6 6 7 9 8 8 6 6 7 6 6 6 8 9 8 7 6 6 6 5 4 4 4 4 5 5 5 5 5 5 6 7 6 6 5 5 10 16 17 18 17
4 4 5 6 7 8 8 6 6 6 7 6 6 7 8 10 10 8 7 6 6 5 5 6 5 5 5 6 5 5 5 5 6 7 7 8 7 7 6 11 15 17 17
3 3 4 5 5 5 5 4 4 5 6 6 7 8 9 9 10 9 7 7 7 6 6 5 6 5 5 5 5 5 5 6 5 6 8 7 7 8 8 8 7 9 15
2 2 3 4 4 4 4 4 5 6 6 6 7 9 10 10 10 10 8 8 8 8 8 8 6 6 5 3 2 3 4 6 7 7 7 6 8 8 8 8 7 6 6
3 3 4 4 4 5 5 5 5 4 4 5 5 7 9 10 10 10 10 9 9 8 8 8 6 5 4 5 4 2 3 3 5 7 7 7 8 7 8 9 8 8 7
3 4 4 5 5 5 5 3 2 2 2 3 5 7 9 10 10 10 11 10 9 9 9 10 9 9 6 5 5 4 4 5 3 3 6 7 7 6 7 7 9 9 9
4 4 4 4 5 5 5 4 5 5 6 7 6 6 7 9 10 11 11 11 10 9 9 10 10 8 7 6 5 5 4 3 3 3 3 4 6 7 7 7 7 8 8
4 4 4 4 4 4 5 6 6 7 7 5 4 6 7 8 10 11 11 11 11 10 10 10 10 10 9 8 6 4 5 3 3 3 5 3 3 5 6 7 6 6 8
4 4 4 4 5 4 5 6 7 8 7 6 6 6 6 6 7 10 11 11 11 10 11 11 11 11 10 9 8 6 5 5 5 5 7 6 5 4 5 5 6 7 7
Wind_Direction
204 189 188 178 172 169 167 165 160 155 151 150 151 150 147 145 143 141 138 136 135 132 130 128 126 126 125 122 119 114 109 106 104 102 102 104 103 101 97 92 89 81 90
171 176 187 178 174 172 171 169 163 158 154 152 152 151 150 148 146 146 143 140 137 135 133 131 128 128 126 125 123 118 114 108 105 100 97 100 104 105 104 101 100 100 97
159 173 185 178 175 175 174 170 165 162 161 159 156 155 155 155 153 151 149 145 142 137 136 136 133 133 131 128 126 123 119 114 110 104 93 77 98 108 106 105 103 101 99
163 172 182 180 177 177 177 173 169 168 165 163 161 160 160 160 160 160 157 152 149 143 141 141 140 140 137 135 132 128 125 119 115 105 86 77 88 114 112 111 109 105 103
162 174 182 181 180 180 180 177 174 172 171 170 169 167 167 166 166 166 165 160 155 150 148 148 147 148 145 144 141 135 130 125 118 102 89 80 70 122 121 118 115 114 111
164 172 184 183 184 185 184 181 179 177 177 177 176 175 175 174 173 171 168 165 164 162 158 157 155 156 153 153 152 145 138 128 112 100 97 91 81 135 133 129 124 125 125
167 171 185 187 187 189 188 186 184 182 183 183 182 182 182 181 178 176 173 172 174 174 172 170 169 164 162 166 163 154 142 132 121 120 121 123 165 153 151 149 143 137 136
166 170 183 193 193 192 192 190 188 187 188 189 189 190 189 189 184 183 183 183 182 182 183 184 182 176 174 174 169 161 148 138 131 136 144 174 189 173 170 166 162 156 147
165 171 186 194 197 198 198 197 197 195 195 193 194 195 195 193 192 192 190 190 188 188 190 193 192 186 185 184 177 170 159 148 138 156 168 196 203 192 185 179 179 172 164
179 187 193 197 195 195 199 201 201 201 200 199 198 196 194 194 195 194 194 195 195 195 196 199 200 194 192 189 184 176 162 146 151 168 183 215 213 206 200 194 193 187 181
206 206 201 200 200 195 195 201 201 203 202 200 200 195 192 191 191 192 197 200 202 202 201 203 205 203 196 192 188 178 161 149 164 183 201 222 217 216 211 207 205 201 197
219 211 206 204 203 198 201 195 198 200 198 197 191 188 184 179 187 189 197 203 208 207 207 207 208 206 196 179 185 176 158 165 177 199 220 226 224 223 219 215 214 210 209
223 215 209 207 203 200 200 191 194 195 193 192 188 184 177 174 181 188 191 203 206 206 202 205 203 190 180 176 174 173 177 180 191 209 228 232 230 229 227 223 219 216 216
228 226 214 207 205 204 201 198 194 194 198 199 193 186 180 181 185 188 191 196 197 194 188 188 188 187 187 188 185 188 193 196 203 209 232 238 235 234 234 230 225 222 223
232 230 221 207 207 204 201 203 203 201 203 204 196 195 190 190 195 196 197 196 198 194 191 190 192 194 197 198 198 198 205 208 211 213 231 240 239 239 238 236 233 229 228
239 236 226 211 210 205 204 205 206 205 204 200 204 204 199 199 198 198 201 201 202 198 198 198 198 199 204 203 209 208 212 213 217 218 224 241 243 242 241 241 240 236 233
243 243 235 217 209 207 209 209 207 204 201 205 208 207 206 206 202 201 204 208 209 201 197 201 205 202 207 210 217 217 217 217 218 222 226 228 239 245 245 244 243 241 238
247 246 243 230 210 211 213 213 210 204 205 209 209 208 210 211 207 203 207 213 206 194 194 199 205 208 215 215 219 221 222 220 221 225 226 227 227 236 244 244 244 243 242
245 247 246 233 216 212 215 217 214 209 210 211 208 210 212 212 210 208 211 212 199 198 203 208 210 206 214 219 224 225 222 224 225 227 228 228 226 228 230 242 243 243 244
258 253 253 241 225 214 209 212 215 217 217 214 214 215 212 212 209 210 213 209 198 201 208 209 215 212 213 210 225 235 231 230 227 226 230 230 228 227 227 231 237 241 243
278 270 265 254 238 210 203 204 211 220 221 222 221 219 216 215 211 210 214 209 204 208 212 209 211 212 215 186 192 252 257 235 232 231 228 228 230 228 223 225 226 227 237
266 260 256 251 241 219 214 213 214 220 227 228 226 222 217 217 214 213 213 213 209 210 210 208 206 206 207 184 179 192 262 269 241 230 224 226 230 226 225 224 223 223 223
274 262 257 248 244 233 222 216 220 218 233 229 228 225 220 216 215 214 214 213 211 208 212 210 205 204 208 203 194 186 200 233 269 252 231 229 226 223 227 225 224 225 223
274 274 267 259 249 239 221 209 209 217 227 230 229 231 226 218 218 216 214 213 211 211 214 213 209 207 199 206 214 218 216 189 203 267 266 238 233 231 229 228 227 226 223
281 284 278 274 264 248 226 217 217 227 234 239 236 235 231 223 219 217 216 214 213 213 215 212 209 207 205 207 204 203 220 231 223 228 261 259 246 238 233 230 228 227 223
309 303 292 284 271 256 236 225 222 232 241 244 240 236 235 228 223 221 217 216 216 215 215 213 212 210 210 210 210 205 198 199 208 215 239 248 250 247 235 234 230 227 224